User: anonymous   Login
Location: Moscow
(55.7500°N, 37.5830°E)
Time: 02:17:44
(UTC+03:00)
Language:

Vanguard 2 Rocket - Orbit

View from above orbital plane
View from above orbital plane
View from above satellite
View from above satellite

Ground track
Ground track

The orbit data is extracted from the following two-line orbital elements,

1 00012U 59001B   21333.22816665  .00000554  00000-0  32517-3 0  9991
2 00012  32.9044 297.2567 1664093 341.4882  13.1525 11.44441058340673
Epoch (UTC): 29 November 2021 05:28:33
Eccentricity: 0.1664093
inclination: 32.9044°
perigee height: 555 km
apogee height: 3324 km
right ascension of ascending node: 297.2567°
argument of perigee: 341.4882°
revolutions per day: 11.44441058
mean anomaly at epoch: 13.1525°
orbit number at epoch: 34067

The dashed part of the orbit path shows where the satellite is in the earth's shadow,  

DLR